Location: Unspecified
(0.0000°N, 0.0000°E)
Time: 04:04:44
(UTC+00:00)

deb NOAA 5 - Pass Details

Date: 23 February 2026
Orbit: 1470 x 1835 km, 102.5° (Epoch: 10 March)

Event Time Altitude Azimuth Distance (km) Brightness Sun altitude
Rises 21:54:17 0° 185° (S) 4,775 ? -54.1°
Reaches altitude 10° 21:57:39 10° 195° (SSW) 3,742 ? -54.9°
Enters shadow 21:58:17 12° 198° (SSW) 3,561 ? -55.1°
